Location: Roland
(31.1349°N, 85.4372°W)
Time: 01:57:58
(UTC+00:00)

Vanguard 1 Rocket - Pass Details

Date: 10 October 2022
Orbit: 650 x 4225 km, 34.3° (Epoch: 06 December)

Event Time Altitude Azimuth Distance (km) Brightness Sun altitude
Rises 04:09:52 0° 286° (WNW) 7,473 12.4 -59.3°
Reaches altitude 10° 04:15:40 10° 286° (WNW) 5,935 11.8 -60.1°
Enters shadow 04:23:41 31° 284° (WNW) 3,635 10.4 -61.1°
